This is the latest recevied weather packets stored in our database for station/object OK2ZI. If no packets are shown the sender has not sent any weather packets the latest 10 day(s).
| Time | Temp. | Humidity | Pressure | Rain* | Wind** | Luminosity | Snow |
|---|---|---|---|---|---|---|---|
| 1777991167 | 26.67° C | 29% | 1004 hPa | 0 mm | - | - | - |
| 1777990812 | 26.67° C | 28% | 1004 hPa | 0 mm | - | - | - |
| 1777989967 | 26.67° C | 28% | 1004 hPa | 0 mm | - | - | - |
| 1777988165 | 25.56° C | 33% | 1004 hPa | 0 mm | - | - | - |
| 1777986727 | 25.56° C | 33% | 1004 hPa | 0 mm | - | - | - |
| 1777986612 | 25.56° C | 33% | 1005 hPa | 0 mm | - | - | - |
| 1777983366 | 25° C | 37% | 1005 hPa | 0 mm | - | - | - |
| 1777981086 | 24.44° C | 38% | 1005 hPa | 0 mm | - | - | - |
| 1777980615 | 24.44° C | 38% | 1005 hPa | 0 mm | - | - | - |
| 1777979413 | 23.89° C | 40% | 1006 hPa | 0 mm | - | - | - |
| 1777979167 | 24.44° C | 40% | 1006 hPa | 0 mm | - | - | - |
| 1777978687 | 23.33° C | 41% | 1005 hPa | 0 mm | - | - | - |
| 1777978327 | 22.22° C | 43% | 1006 hPa | 0 mm | - | - | - |
| 1777977728 | 23.33° C | 41% | 1006 hPa | 0 mm | - | - | - |
| 1777976647 | 22.22° C | 41% | 1006 hPa | 0 mm | - | - | - |
| 1777976527 | 21.67° C | 44% | 1006 hPa | 0 mm | - | - | - |
| 1777976287 | 22.78° C | 43% | 1006 hPa | 0 mm | - | - | - |
| 1777974967 | 21.11° C | 44% | 1006 hPa | 0 mm | - | - | - |
| 1777974847 | 21.67° C | 46% | 1006 hPa | 0 mm | - | - | - |
| 1777974127 | 20° C | 44% | 1006 hPa | 0 mm | - | - | - |
| 1777973768 | 20.56° C | 44% | 1006 hPa | 0 mm | - | - | - |
| 1777973647 | 21.11° C | 43% | 1006 hPa | 0 mm | - | - | - |
| 1777973166 | 21.11° C | 44% | 1006 hPa | 0 mm | - | - | - |
| 1777972447 | 20.56° C | 45% | 1006 hPa | 0 mm | - | - | - |
| 1777971838 | 18.89° C | 47% | 1006 hPa | 0 mm | - | - | - |
* Rain latest hour (hover to see other rain measurements)
** Current wind speed in m/s (hover to see current wind gust speed)